User: anonymous   Login
Location: Mat�lon
(46.2791°N, 7.1028°E)
Time: 11:14:01
(UTC+00:00)
Language:

Cosmos 1975 - Orbit

View from above orbital plane
View from above orbital plane
View from above satellite
View from above satellite

Ground track
Ground track

The orbit data is extracted from the following two-line orbital elements,

1 19573U 88093A   20330.12921703  .00000470  00000-0  31040-4 0  9999
2 19573  82.5209 208.5373 0013724 342.7257  17.3500 15.04981521748818
Epoch (UTC): 25 November 2020 03:06:04
Eccentricity: 0.0013724
inclination: 82.5209°
perigee height: 542 km
apogee height: 561 km
right ascension of ascending node: 208.5373°
argument of perigee: 342.7257°
revolutions per day: 15.04981521
mean anomaly at epoch: 17.3500°
orbit number at epoch: 74881

The dashed part of the orbit path shows where the satellite is in the earth's shadow,  

DLR